Regional Weather Roundup
Issued by NWS

Home | Current Version | Previous Version | Graphics & Text | Print | Product List | Glossary On
Versions: 1 2 3 4 5 6 7 8 9 10 11 12 13 14 15 16 17 18 19 20 21 22 23 24 25 26 27 28 29 30 31 32 33 34 35 36 37 38 39 40 41 42 43 44 45 46 47 48 49 50
874
ASUS45 KSLC 191110
RWRUT

UTAH REGIONAL WEATHER ROUNDUP
NATIONAL WEATHER SERVICE SALT LAKE CITY UT
400 AM MST FRI JAN 19 2018

UTZ001>011-023>025-191200-

NORTHERN UTAH

CITY           SKY/WX    TMP DP  RH WIND       PRES   REMARKS
BRIGHAM CITY   CLOUDY    47  29  48 SW7       29.81F
HILL AFB       CLOUDY    50  27  40 S18       29.80F
LOGAN          CLOUDY    47  29  49 NE5       29.78F
OGDEN          CLOUDY    52  27  38 S18       29.79F
SALT LAKE CITY CLOUDY    56  28  34 S18G26    29.80F
TOOELE VALLEY  CLOUDY    55  32  41 S25G38    29.77F
WENDOVER       PTCLDY    25  21  85 CALM      29.80F
HEBER CITY       N/A     37  25  60 SE5       29.88F WCI  34
WEST JORDAN    CLOUDY    49  29  46 S26G35    29.81F

$$

UTZ011>015-024>027-191200-

CENTRAL/NORTHEAST UTAH

CITY           SKY/WX    TMP DP  RH WIND       PRES   REMARKS
PROVO AIRPORT  CLOUDY    44  26  49 E12       29.89F
MOAB/CANYONLAN MOCLDY    28  23  81 S3        30.05F
DELTA          CLOUDY    45  28  53 S14       29.90F
PRICE          PTCLDY    24  18  77 NE6       30.04F WCI  17
RICHFIELD      CLEAR     46  25  42 SW13      29.95F
ROOSEVELT      PTCLDY    21  16  79 W3        30.04F
VERNAL         MOCLDY    20  14  77 NW3       30.02F

$$

UTZ013>016-019>022-027-191200-

SOUTHERN UTAH

CITY           SKY/WX    TMP DP  RH WIND       PRES   REMARKS
BRYCE CANYON   MOCLDY    25  23  92 SW3       30.10F
CEDAR CITY     MOCLDY    43  26  51 S7        29.98F
MILFORD        MOCLDY    42  27  55 S15       29.94F
ST GEORGE      PTSUNNY   39  34  82 SE3       30.03F
HANKSVILLE     CLOUDY    25  14  63 CALM      30.09F
KANAB          CLEAR     28  23  80 NE5       30.12F WCI  23
BLANDING         N/A     32  19  60 CALM      30.21F

$$

REGIONAL REPORTS     COLORADO/ARIZONA

CITY           SKY/WX    TMP DP  RH WIND       PRES   REMARKS
CRAIG, CO      PTCLDY    19  12  74 E3        29.99F
GRAND JUNCTION PTCLDY    26  18  71 E6        30.08F WCI  19
RIFLE, CO      CLEAR     22  18  85 E8        30.10F WCI  12
MONTROSE, CO   PTCLDY    24  16  71 SE7       30.11F WCI  16
CORTEZ, CO     MOCLDY    20  17  88 NE5       30.15F WCI  13
COLORADO CITY    N/A     32  28  86 CALM      30.09F
PAGE, AZ       CLOUDY    37  24  59 CALM      30.08F
GRAND CANYON   PTCLDY    22  17  81 CALM      30.14F
KINGMAN, AZ    CLEAR     44  27  51 SE10      30.04F
FLAGSTAFF, AZ  CLEAR     26  15  63 CALM      30.16F

$$

REGIONAL REPORTS    NEVADA/IDAHO/WYOMING

CITY           SKY/WX    TMP DP  RH WIND       PRES   REMARKS
LAS VEGAS, NV  PTCLDY    50  39  66 W5        29.94F
ELY, NY        CLOUDY    45  27  49 SE23G32   29.87F
ELKO, NV       CLOUDY    44  32  62 S7        29.81R
POCATELLO, ID  CLOUDY    38  34  85 SW24G30   29.83F WCI  27
BURLEY, ID     CLOUDY    39  34  82 SW9       29.84S WCI  33
FORT BRIDGER,    N/A     41  24  51 W9        29.86F
EVANSTON, WY   CLOUDY    41  26  55 SW22      29.83F
ROCK SPRINGS,  CLEAR     35  17  47 CALM      29.85F

$$




USA.gov is the U.S. government's official web portal to all federal, state and local government web resources and services.